2018-104D (43852 NORAD) Tracking and Keplerian Element Data

This shows tracking and keplerian element data for the satellite.

Feedback or suggestion? Click here.




ElementValue
Catalog43852
Name2018-104D
Epoch Orbit435
Epoch Day14.00036449
Epoch Year2019
RAAN159.3686
Inclination85.0347
Eccentricity0.0015063
Argument of Perigee185.4012
Mean Anonmoly174.7287
Mean Motion15.20265079
Decay Rate4.1E-07
L11 43852U 18104D 19014.00036449 .00000041 00000-0 00000+0 0 9991
L22 43852 85.0347 159.3686 0015063 185.4012 174.7287 15.20265079 4350

Live tracking and technical data element details for 2018-104D (NORAD 43852). 2018-104D can be tracked NOW for your location showing map with azimuth and elevation plus other details from your city location.

Track the satellite on the map from your city or location and see movement details for azimuth, elevation, latitude, longitude, range, height, and movement on the map or in text.







IsCatalogInMostPopularTable: catalog: 43852, numindb: 28
Update: records affected: 1



GetName: 43852 2018-104D

Hit Count: updated at: Wed, 23 Jan 2019 03:33:29 GMT